Wind_Speed
15 14 13 13 11 10 10 10 10 11 13 14 14 13 12 11 12 12 13 14 16 17 17 17 18 19 20 22 23 25 26 27 28 29 29 30 31 32 33 34 34 34
17 17 16 16 14 13 12 12 12 13 15 17 17 17 16 15 15 15 15 16 17 18 18 18 19 20 21 22 24 25 26 27 28 30 30 31 32 33 34 36 36 36
19 19 19 18 17 16 15 14 13 14 16 18 19 20 19 18 18 19 19 19 19 19 19 20 20 21 22 23 24 25 27 28 29 31 31 32 33 34 36 37 38 39
19 20 20 20 19 18 17 16 15 16 18 20 21 22 22 21 21 23 23 22 21 21 21 21 22 22 23 24 25 27 28 29 31 32 33 34 35 36 37 38 40 40
20 20 21 21 21 21 20 18 17 17 19 21 22 24 25 24 24 26 26 25 24 23 23 23 23 24 25 26 27 28 29 31 32 34 35 36 37 38 39 40 41 42
23 22 23 23 23 23 23 20 19 20 21 22 24 26 27 26 26 27 27 27 26 26 25 25 25 26 27 28 29 30 31 32 34 36 37 38 39 40 40 41 43 44
26 26 26 26 26 26 25 23 21 22 23 24 26 28 29 29 29 29 29 29 28 28 27 27 27 28 29 30 31 33 33 34 36 38 39 40 41 41 42 43 45 46
29 29 29 29 28 28 27 25 24 25 26 28 29 30 30 31 30 31 31 31 30 29 29 29 29 30 31 32 34 35 36 36 37 39 41 42 43 43 44 45 47 48
32 32 31 31 31 30 29 28 26 27 29 31 32 31 32 32 32 33 33 33 32 32 31 31 31 32 33 35 36 37 38 38 39 40 42 43 44 45 46 47 49 50
33 33 33 33 32 31 31 30 28 28 30 32 32 33 34 34 34 34 35 35 34 34 34 34 34 34 35 37 38 40 40 40 41 42 43 44 45 46 47 47 50 51
35 35 35 34 34 33 32 31 30 31 31 33 34 35 36 36 35 36 38 37 36 37 37 37 37 37 37 39 40 42 42 42 43 44 45 46 47 48 48 49 51 53
37 37 36 36 35 35 34 33 32 33 34 35 35 37 38 38 37 38 40 39 39 40 41 40 40 40 40 41 43 44 44 44 45 46 47 47 48 50 50 50 52 55
38 38 38 38 37 36 36 35 35 36 36 37 37 38 40 40 40 40 42 42 42 43 43 43 43 43 43 44 46 46 46 46 48 49 49 49 50 52 53 53 54 56
40 39 39 39 39 39 38 38 38 38 39 39 39 40 41 43 43 42 43 44 45 45 45 45 46 46 45 47 48 47 47 48 51 52 51 51 52 54 55 55 55 58
40 40 41 41 41 41 41 41 41 41 41 41 42 42 43 45 46 45 46 47 48 47 46 47 48 48 48 49 48 48 50 51 53 54 54 54 55 57 57 57 58 60
42 42 43 44 44 44 44 43 44 44 44 44 45 45 45 48 50 49 49 50 50 49 48 49 50 50 50 50 50 51 53 54 56 57 57 57 58 59 59 59 61 62
45 46 46 47 47 47 47 46 47 47 47 47 48 47 48 50 52 52 52 53 52 51 51 52 52 52 52 52 52 54 55 57 58 59 60 60 61 62 62 61 63 63
49 50 50 50 50 50 50 50 50 50 50 51 51 50 50 51 54 55 55 54 54 53 54 55 54 54 55 55 55 56 57 59 60 61 62 63 63 64 64 64 64 62
54 54 54 54 54 53 53 53 53 53 54 54 53 53 52 53 55 57 57 57 56 56 56 57 57 57 57 57 57 57 59 60 61 63 63 64 65 66 67 67 66 60
58 58 58 57 57 56 56 55 56 57 57 57 56 55 54 55 57 59 59 59 59 59 58 59 59 59 59 59 58 59 60 61 63 64 64 65 66 67 67 67 61 51
62 62 62 61 60 59 58 58 59 60 60 60 59 57 57 57 59 60 61 62 62 61 61 61 61 62 61 60 60 60 61 63 65 65 65 66 67 66 64 59 49 39
66 66 65 64 63 61 61 62 63 64 64 63 61 60 59 60 61 63 63 63 63 63 63 63 64 64 63 62 62 62 62 64 65 65 65 67 67 63 56 48 40 35
69 68 68 67 65 63 63 65 66 66 66 66 64 62 61 61 63 64 65 64 65 65 65 65 65 65 64 64 64 63 64 65 65 65 65 66 65 58 49 42 38 38
72 70 69 68 67 67 67 67 67 68 68 67 66 64 62 62 64 65 66 66 67 67 66 66 66 66 66 66 66 65 65 66 66 65 65 65 63 55 46 41 41 42
75 73 71 71 71 71 70 70 69 69 69 68 66 65 65 64 65 66 67 68 68 69 67 67 67 67 68 69 68 67 67 67 66 65 64 64 62 53 45 42 44 47
78 76 75 75 74 74 74 74 73 73 71 69 67 67 67 67 67 69 69 70 70 70 69 69 69 69 70 72 70 69 70 70 67 65 65 63 58 51 47 46 50 56
Wind_Direction
262 264 266 269 273 280 288 296 300 302 303 306 309 310 313 316 317 321 326 329 330 332 336 340 344 347 350 351 349 348 348 348 348 348 347 346 344 343 343 345 347 348
262 263 264 267 271 274 279 287 293 294 296 300 304 306 308 309 311 314 319 321 323 325 329 334 338 341 344 345 344 344 344 344 344 343 343 343 342 342 343 345 346 346
258 261 262 264 267 270 273 279 286 290 292 295 300 304 306 307 309 312 316 318 319 321 324 329 333 335 338 339 340 339 339 339 339 338 339 339 339 341 342 344 346 346
258 261 263 264 265 268 270 274 280 285 288 291 297 301 303 306 307 310 313 315 316 318 321 325 328 330 333 334 334 334 335 335 334 334 335 336 337 338 341 342 343 344
260 263 266 267 267 268 268 270 274 278 282 287 292 296 298 302 305 306 309 311 313 315 317 321 324 326 327 328 329 329 330 331 331 331 332 333 335 336 338 340 340 341
260 263 265 267 268 268 268 269 271 273 278 283 287 289 292 297 301 303 305 308 310 312 314 317 319 321 322 323 324 324 325 327 327 328 329 331 333 334 336 337 338 338
261 262 263 264 266 266 267 268 270 272 275 278 281 284 288 293 297 299 301 304 306 308 311 313 315 316 318 319 320 320 321 323 325 326 327 329 330 332 333 335 336 336
259 260 261 262 263 264 265 266 269 272 274 276 279 282 285 289 293 296 298 301 303 306 307 309 311 312 314 315 316 316 317 320 321 323 325 327 330 330 331 333 334 334
258 260 261 261 261 262 263 264 267 271 273 276 280 282 283 286 291 293 295 298 301 303 304 305 306 308 310 312 313 313 314 316 318 319 323 326 328 329 329 330 331 332
258 260 260 261 261 261 262 263 265 268 271 275 278 279 281 285 289 292 294 296 299 301 302 302 303 305 308 310 310 310 310 313 315 317 321 323 325 326 326 327 328 328
259 260 261 262 262 262 262 262 264 266 268 272 275 277 281 285 288 290 293 295 297 299 299 300 301 303 305 308 308 307 308 311 313 316 319 321 322 323 323 324 325 325
260 261 262 262 262 262 263 264 264 266 268 271 275 278 281 284 287 289 291 294 295 296 297 298 300 301 303 306 306 305 307 309 312 315 317 318 319 320 321 322 322 323
260 262 263 263 263 264 265 265 266 267 269 273 276 279 281 283 286 288 290 292 293 293 295 297 299 299 301 304 304 304 306 309 311 313 314 316 317 318 318 319 320 321
260 261 262 263 263 265 266 267 268 270 271 274 276 278 280 283 285 287 288 289 290 291 294 297 297 298 300 302 303 303 304 307 309 311 313 314 315 316 317 318 319 321
260 261 262 263 264 265 267 268 270 271 272 274 275 277 280 283 284 285 286 287 288 290 294 296 296 297 299 300 301 302 303 305 307 309 312 313 314 315 316 317 318 321
259 261 262 263 264 265 267 268 270 271 272 273 275 277 280 282 283 284 284 285 287 290 293 294 295 297 299 299 300 301 303 304 306 309 311 312 314 315 316 317 318 320
258 260 261 262 263 265 266 268 269 271 272 273 274 276 278 281 283 284 284 285 287 290 291 292 294 297 298 298 299 301 303 304 306 309 310 312 314 315 316 317 317 320
259 259 260 261 262 264 266 267 269 270 271 271 273 275 278 280 282 283 283 285 287 289 290 292 293 295 296 297 298 301 302 304 306 308 310 312 314 316 316 316 317 320
260 260 261 261 263 264 266 267 269 269 270 271 273 275 278 279 280 282 284 285 287 288 289 291 293 294 295 296 298 300 302 304 306 308 311 313 315 316 316 315 317 318
259 260 261 262 264 265 267 268 269 270 270 271 273 275 278 279 280 282 283 284 285 287 289 290 292 292 294 296 298 300 302 304 306 308 311 313 315 316 317 316 316 316
258 259 260 261 262 264 266 267 268 269 270 271 273 276 277 279 280 281 282 283 285 286 288 289 290 292 294 296 298 301 302 304 306 308 310 312 315 317 317 314 312 311
258 259 260 260 261 262 264 266 267 268 269 271 273 274 276 278 279 280 281 283 284 285 287 288 290 292 294 296 299 300 302 304 305 306 308 312 316 317 313 308 306 307
258 259 260 261 262 263 263 265 266 267 269 271 272 273 275 277 278 279 281 282 283 284 286 287 290 292 294 296 298 300 302 304 304 304 308 313 316 313 305 302 306 311
258 260 261 262 263 263 263 263 265 267 268 270 272 274 275 276 277 279 280 281 282 283 285 288 290 292 293 295 297 299 301 302 301 304 309 313 312 306 299 302 310 315
258 259 260 262 263 263 264 264 265 265 267 269 272 274 274 275 276 277 278 280 281 283 285 287 289 291 292 293 295 297 299 299 301 304 308 311 308 300 296 304 312 314
258 259 259 260 262 263 264 265 265 266 267 268 270 272 273 274 275 276 277 279 280 282 284 286 288 289 290 291 292 295 296 298 300 303 305 307 304 296 293 300 307 309
Height
10974 10975 10976 10976 10977 10977 10977 10977 10976 10975 10974 10974 10974 10973 10973 10972 10971 10971 10970 10970 10969 10968 10968 10967 10966 10965 10964 10964 10963 10962 10960 10959 10958 10957 10956 10955 10953 10952 10950 10948 10947 10945
10972 10973 10974 10974 10975 10975 10975 10975 10975 10974 10972 10972 10971 10971 10971 10971 10970 10969 10968 10967 10967 10966 10966 10965 10964 10963 10962 10961 10960 10959 10958 10957 10955 10954 10953 10952 10951 10949 10947 10946 10944 10942
10970 10970 10971 10971 10972 10972 10973 10973 10973 10972 10970 10969 10969 10969 10969 10969 10968 10967 10966 10965 10965 10964 10963 10963 10962 10961 10960 10959 10958 10957 10955 10954 10953 10952 10951 10949 10948 10947 10945 10943 10941 10939
10967 10968 10968 10969 10969 10969 10970 10970 10970 10969 10968 10967 10966 10966 10966 10966 10966 10965 10964 10963 10962 10962 10961 10960 10960 10959 10958 10956 10955 10954 10953 10951 10950 10949 10948 10947 10945 10944 10942 10940 10938 10936
10964 10965 10965 10966 10966 10966 10966 10967 10967 10967 10966 10965 10964 10964 10963 10964 10963 10962 10961 10961 10960 10959 10959 10958 10957 10956 10955 10954 10952 10951 10950 10949 10947 10946 10945 10944 10942 10941 10939 10937 10935 10933
10961 10962 10962 10963 10963 10963 10963 10964 10964 10964 10963 10962 10961 10961 10960 10961 10961 10960 10959 10958 10957 10956 10956 10955 10954 10953 10952 10951 10949 10948 10946 10946 10944 10943 10942 10940 10939 10937 10936 10934 10931 10929
10958 10959 10959 10959 10959 10960 10960 10961 10961 10961 10960 10959 10958 10958 10958 10958 10957 10957 10956 10955 10954 10953 10953 10952 10951 10950 10949 10947 10946 10944 10943 10942 10941 10939 10938 10937 10935 10933 10932 10930 10927 10924
10955 10955 10956 10956 10956 10956 10957 10957 10958 10958 10957 10956 10955 10955 10954 10954 10954 10953 10953 10952 10951 10950 10949 10949 10948 10946 10945 10944 10942 10941 10939 10939 10938 10936 10934 10933 10931 10929 10927 10926 10923 10921
10952 10952 10952 10952 10952 10953 10953 10954 10955 10954 10954 10952 10951 10951 10950 10950 10951 10950 10949 10949 10948 10947 10946 10945 10944 10943 10942 10940 10939 10937 10936 10935 10934 10932 10931 10929 10927 10925 10923 10922 10920 10917
10948 10948 10948 10948 10948 10949 10949 10950 10951 10951 10950 10949 10948 10947 10946 10947 10947 10946 10945 10945 10944 10943 10942 10942 10941 10940 10939 10937 10936 10933 10932 10931 10930 10929 10927 10926 10924 10922 10921 10919 10917 10914
10945 10944 10944 10944 10945 10945 10946 10946 10946 10946 10945 10945 10944 10943 10942 10943 10943 10942 10941 10941 10941 10940 10938 10937 10937 10936 10935 10934 10932 10929 10928 10927 10925 10924 10923 10921 10920 10918 10917 10916 10914 10911
10940 10940 10940 10941 10941 10941 10941 10942 10942 10941 10940 10940 10940 10939 10938 10938 10939 10938 10937 10937 10937 10935 10934 10933 10932 10931 10931 10930 10928 10925 10923 10922 10921 10920 10918 10917 10915 10913 10912 10911 10909 10907
10936 10936 10936 10936 10936 10936 10937 10937 10937 10936 10936 10936 10936 10935 10934 10933 10934 10934 10933 10933 10932 10931 10930 10929 10928 10927 10926 10925 10923 10921 10919 10918 10916 10915 10914 10913 10911 10909 10907 10906 10904 10902
10932 10932 10931 10931 10932 10932 10931 10932 10932 10932 10932 10932 10932 10931 10929 10929 10929 10930 10929 10927 10927 10926 10926 10925 10923 10922 10922 10921 10919 10917 10915 10914 10912 10911 10910 10909 10907 10905 10903 10901 10900 10898
10927 10927 10927 10926 10926 10926 10926 10927 10927 10927 10927 10927 10927 10927 10926 10924 10924 10924 10923 10921 10921 10921 10921 10920 10918 10918 10917 10916 10915 10913 10911 10910 10908 10907 10906 10905 10903 10901 10899 10896 10894 10893
10922 10922 10922 10921 10921 10921 10921 10922 10922 10922 10922 10922 10922 10923 10922 10920 10918 10919 10918 10916 10916 10917 10916 10915 10913 10913 10913 10912 10910 10909 10907 10905 10904 10902 10901 10900 10898 10896 10894 10892 10889 10887
10917 10917 10916 10916 10915 10916 10916 10917 10917 10917 10917 10917 10917 10918 10918 10916 10913 10913 10912 10911 10911 10912 10911 10909 10908 10908 10908 10907 10906 10904 10902 10900 10899 10897 10896 10894 10893 10891 10890 10888 10885 10882
10910 10911 10910 10910 10910 10910 10911 10912 10912 10912 10912 10912 10912 10913 10914 10913 10909 10906 10906 10906 10906 10906 10905 10904 10904 10903 10902 10902 10901 10900 10897 10895 10893 10892 10890 10888 10887 10886 10884 10882 10880 10879
10903 10904 10904 10904 10904 10905 10906 10906 10907 10906 10906 10906 10907 10908 10909 10908 10904 10902 10902 10901 10901 10901 10900 10899 10899 10898 10897 10897 10896 10895 10893 10890 10888 10886 10885 10883 10882 10880 10878 10875 10874 10873
10896 10896 10896 10897 10898 10899 10900 10901 10900 10900 10900 10900 10902 10903 10904 10903 10900 10898 10897 10896 10895 10895 10895 10894 10894 10892 10892 10892 10892 10891 10889 10886 10883 10881 10879 10878 10876 10875 10872 10869 10867 10867
10889 10889 10889 10890 10892 10893 10895 10895 10894 10893 10893 10894 10896 10897 10898 10897 10895 10893 10892 10890 10890 10889 10889 10889 10887 10887 10887 10887 10887 10886 10884 10882 10879 10876 10874 10872 10870 10868 10866 10864 10861 10860
10882 10881 10882 10883 10886 10888 10889 10889 10887 10886 10886 10888 10890 10892 10892 10891 10890 10887 10886 10886 10885 10884 10883 10883 10881 10881 10881 10881 10881 10881 10880 10877 10874 10871 10869 10867 10864 10862 10860 10858 10856 10854
10874 10874 10875 10877 10880 10883 10883 10882 10881 10880 10881 10882 10883 10885 10887 10886 10884 10881 10880 10880 10879 10878 10877 10877 10876 10876 10875 10875 10876 10876 10875 10872 10868 10866 10864 10861 10859 10857 10854 10852 10850 10848
10866 10868 10870 10871 10872 10875 10875 10875 10874 10874 10874 10874 10876 10879 10880 10879 10877 10875 10875 10874 10872 10871 10872 10871 10871 10870 10870 10869 10869 10870 10870 10866 10863 10860 10859 10856 10853 10851 10849 10847 10844 10841
10859 10862 10864 10864 10865 10866 10866 10867 10867 10867 10867 10869 10870 10872 10872 10871 10871 10869 10868 10867 10866 10865 10866 10866 10865 10865 10864 10863 10863 10864 10863 10860 10857 10856 10853 10850 10848 10846 10843 10841 10838 10835
10852 10855 10857 10857 10857 10858 10858 10858 10858 10859 10861 10863 10865 10864 10863 10863 10864 10862 10861 10860 10860 10860 10860 10860 10860 10859 10857 10856 10857 10858 10856 10854 10853 10851 10847 10844 10843 10841 10838 10835 10832 10829